TimeEDT,TemperatureF,Dew PointF,Humidity,Sea Level PressureIn,VisibilityMPH,Wind Direction,Wind SpeedMPH,Gust SpeedMPH,PrecipitationIn,Events,Conditions,WindDirDegrees,DateUTC
12:53 AM,63.0,33.1,33,29.88,10.0,South,15.0,-,N/A,,Clear,180,2013-03-11 04:53:00
1:53 AM,62.1,32.0,32,29.87,10.0,South,11.5,19.6,N/A,,Scattered Clouds,170,2013-03-11 05:53:00
2:53 AM,61.0,32.0,34,29.86,10.0,South,12.7,-,N/A,,Mostly Cloudy,180,2013-03-11 06:53:00
3:53 AM,60.1,32.0,35,29.86,10.0,South,11.5,-,N/A,,Partly Cloudy,170,2013-03-11 07:53:00
4:53 AM,57.0,35.1,44,29.85,10.0,South,6.9,-,0.00,,Overcast,170,2013-03-11 08:53:00
6:53 AM,55.0,33.1,43,29.85,10.0,SE,4.6,-,N/A,,Mostly Cloudy,140,2013-03-11 10:53:00
7:53 AM,57.0,30.9,37,29.84,10.0,SSE,10.4,-,N/A,,Mostly Cloudy,150,2013-03-11 11:53:00
8:53 AM,57.0,30.9,37,29.84,10.0,South,12.7,-,N/A,,Mostly Cloudy,170,2013-03-11 12:53:00
9:53 AM,57.9,33.1,39,29.84,10.0,South,10.4,-,N/A,,Overcast,180,2013-03-11 13:53:00
10:53 AM,55.9,37.9,51,29.82,10.0,South,9.2,-,0.00,Rain,Light Rain,180,2013-03-11 14:53:00
11:53 AM,54.0,42.1,64,29.77,10.0,South,11.5,-,0.02,Rain,Light Rain,170,2013-03-11 15:53:00
12:53 PM,54.0,44.1,69,29.76,7.0,South,15.0,-,0.01,Rain,Light Rain,170,2013-03-11 16:53:00
1:53 PM,55.9,44.1,64,29.70,10.0,South,18.4,32.2,0.01,,Overcast,170,2013-03-11 17:53:00
2:53 PM,57.0,46.0,67,29.67,10.0,South,19.6,27.6,0.00,,Overcast,180,2013-03-11 18:53:00
3:53 PM,57.0,46.0,67,29.64,10.0,South,17.3,25.3,0.00,Rain,Light Rain,180,2013-03-11 19:53:00
4:53 PM,55.9,48.9,77,29.62,6.0,South,16.1,26.5,0.04,Rain,Light Rain,190,2013-03-11 20:53:00
5:51 PM,55.4,50.0,82,29.67,1.8,WSW,20.7,32.2,0.08,Rain,Heavy Rain,250,2013-03-11 21:51:00
5:53 PM,54.0,50.0,86,29.66,1.0,West,18.4,32.2,0.15,Rain,Heavy Rain,260,2013-03-11 21:53:00
5:57 PM,50.0,46.4,87,29.67,0.8,West,15.0,32.2,0.04,Rain,Heavy Rain,270,2013-03-11 21:57:00
6:03 PM,50.0,46.4,87,29.67,1.2,West,15.0,21.9,0.07,Rain,Heavy Rain,260,2013-03-11 22:03:00
6:21 PM,48.2,46.4,93,29.67,2.5,West,12.7,18.4,0.16,Rain,Rain,260,2013-03-11 22:21:00
6:53 PM,48.0,45.0,89,29.69,7.0,WSW,11.5,-,0.22,Rain,Light Rain,250,2013-03-11 22:53:00
7:02 PM,48.2,44.6,87,29.69,6.0,WSW,6.9,-,0.00,Rain,Light Rain,250,2013-03-11 23:02:00
7:30 PM,46.4,42.8,87,29.72,5.0,West,21.9,29.9,0.03,Rain,Light Rain,260,2013-03-11 23:30:00
7:38 PM,46.4,42.8,87,29.72,4.0,WSW,18.4,28.8,0.03,Rain,Light Rain,250,2013-03-11 23:38:00
7:53 PM,46.9,42.1,83,29.73,10.0,WSW,15.0,25.3,0.03,,Overcast,240,2013-03-11 23:53:00
8:03 PM,46.4,41.0,81,29.73,10.0,WSW,17.3,24.2,0.00,Rain,Light Rain,240,2013-03-12 00:03:00
8:53 PM,46.0,39.9,79,29.76,10.0,WSW,10.4,-,0.00,,Overcast,250,2013-03-12 00:53:00
9:53 PM,45.0,39.0,80,29.78,10.0,WSW,10.4,-,N/A,,Mostly Cloudy,250,2013-03-12 01:53:00
10:27 PM,44.6,35.6,71,29.80,10.0,West,11.5,21.9,N/A,,Overcast,280,2013-03-12 02:27:00
10:53 PM,43.0,34.0,71,29.83,10.0,WSW,11.5,20.7,N/A,,Overcast,250,2013-03-12 02:53:00
11:53 PM,41.0,34.0,76,29.83,10.0,West,9.2,-,N/A,,Overcast,260,2013-03-12 03:53:00